Location: Schommer Observatory
(40.5200°N, 74.4500°W)
Time: 09:01:44
(UTC-05:00)

Tiangong 2 - Pass Details

Date: 16 October 2017
Orbit: 386 x 390 km, 42.8° (Epoch: 17 December)

Event Time Altitude Azimuth Distance (km) Brightness Sun altitude
Exits shadow 06:12:40 19° 288° (WNW) 1,007 2.6 -11.7°
Maximum altitude 06:14:50 78° 13° (NNE) 403 1.1 -11.3°
Drops below altitude 10° 06:18:03 10° 101° (E) 1,422 5.5 -10.6°
Sets 06:20:07 0° 103° (ESE) 2,277 7.0 -10.3°
